Rocky Mount, NC

6:23 PM EST on January 20, 2018 (GMT -0500)
Rocky Mount-Wilson Regional

Weather History for KRWI - June, 2014

Change the Weather History Date:

Wednesday, June 25, 2014

  Actual Average Record
Temperature  
Mean Temperature 82 °F -  
Max Temperature 93 °F 87 °F 97 °F (1956)
Min Temperature 73 °F 65 °F 54 °F (1963)
Cooling Degree Days 17    
Growing Degree Days 32 (Base 50)    
Moisture  
Dew Point 71 °F    
Average Humidity 77    
Maximum Humidity 94    
Minimum Humidity 44    
Precipitation  
Precipitation 0.04 in - - ()
Sea Level Pressure  
Sea Level Pressure 29.97 in    
Wind  
Wind Speed 5 mph (SSW)    
Max Wind Speed 14 mph    
Max Gust Speed 21 mph    
Visibility 8 miles    
Events Rain , Thunderstorm    
Averages and records for this station are not official NWS values.
T = Trace of Precipitation, MM = Missing Value Source: NWS Daily Summary

Daily Weather History Graph

Daily Weather History Graph

Search for Another Location

Airport or City:

Trip Planner

Search our weather history database for the weather conditions in past years. The results will help you decide how hot, cold, wet, or windy it might be!

Date:

Astronomy

Jun. 25, 2014 Rise Set
Actual Time 5:56 AM EDT 8:31 PM EDT
Civil Twilight 5:26 AM EDT 9:01 PM EDT
Nautical Twilight 4:49 AM EDT 9:39 PM EDT
Astronomical Twilight 4:07 AM EDT 10:20 PM EDT
Moon 4:43 AM EDT (6/25) 7:05 PM EDT (6/25)
Length of Visible Light 15h 35m
Length of Day
14h 35m
Waning Crescent, 3% of the Moon is Illuminated
Jun 25
Waning Crescent
Jun 27
New
Jul 5
First Quarter
Jul 12
Full
Jul 18
Last Quarter

Hourly Weather History & Observations

Time (EDT) Temp. Heat Index Dew Point Humidity Pressure Visibility Wind Dir Wind Speed Gust Speed Precip Events Conditions
12:53 AM 75.0 °F - 71.1 °F 87% 30.04 in 10.0 mi South 5.8 mph - N/A   Partly Cloudy
1:53 AM 73.9 °F - 71.1 °F 91% 30.02 in 10.0 mi SSE 3.5 mph - N/A   Mostly Cloudy
2:33 AM 73.0 °F - 71.1 °F 93% 30.02 in 8.0 mi SSE 3.5 mph - N/A   Partly Cloudy
2:53 AM 73.0 °F - 71.1 °F 93% 30.01 in 8.0 mi SSE 3.5 mph - N/A   Partly Cloudy
3:53 AM 73.0 °F - 71.1 °F 93% 30.00 in 7.0 mi Calm Calm - N/A   Clear
4:37 AM 73.0 °F - 71.1 °F 93% 30.00 in 5.0 mi Calm Calm - N/A   Mostly Cloudy
4:53 AM 73.0 °F - 71.1 °F 93% 29.99 in 6.0 mi SSE 3.5 mph - N/A   Overcast
5:36 AM 73.9 °F - 72.0 °F 93% 30.00 in 7.0 mi South 5.8 mph - N/A   Overcast
5:53 AM 73.9 °F - 72.0 °F 93% 30.00 in 7.0 mi South 4.6 mph - N/A   Overcast
6:15 AM 73.9 °F - 72.0 °F 93% 30.00 in 7.0 mi South 3.5 mph - N/A   Overcast
6:53 AM 75.0 °F - 72.0 °F 90% 30.01 in 6.0 mi South 3.5 mph - N/A   Overcast
7:34 AM 77.0 °F - 73.0 °F 88% 30.01 in 7.0 mi South 4.6 mph - N/A   Scattered Clouds
7:53 AM 77.0 °F - 73.0 °F 88% 30.01 in 7.0 mi SSW 6.9 mph - N/A   Scattered Clouds
7:57 AM 77.0 °F - 73.0 °F 88% 30.01 in 7.0 mi South 6.9 mph - N/A   Mostly Cloudy
8:25 AM 79.0 °F - 73.0 °F 82% 30.01 in 8.0 mi SSW 4.6 mph - N/A   Mostly Cloudy
8:53 AM 79.0 °F - 72.0 °F 79% 30.01 in 9.0 mi SW 5.8 mph - N/A   Mostly Cloudy
9:09 AM 80.1 °F 84.2 °F 73.0 °F 79% 30.02 in 10.0 mi SW 6.9 mph - N/A   Overcast
9:42 AM 81.0 °F 85.2 °F 72.0 °F 74% 30.01 in 10.0 mi Variable 6.9 mph - N/A   Scattered Clouds
9:53 AM 81.0 °F 85.2 °F 72.0 °F 74% 30.01 in 10.0 mi SSW 8.1 mph - N/A   Partly Cloudy
10:53 AM 84.0 °F 89.6 °F 72.0 °F 67% 29.99 in 9.0 mi SW 5.8 mph - N/A   Clear
11:53 AM 87.1 °F 93.6 °F 72.0 °F 61% 29.99 in 10.0 mi WSW 6.9 mph - N/A   Mostly Cloudy
12:53 PM 88.0 °F 92.1 °F 69.1 °F 53% 29.97 in 10.0 mi SW 12.7 mph 19.6 mph N/A   Partly Cloudy
1:53 PM 90.0 °F 95.4 °F 70.0 °F 52% 29.95 in 10.0 mi SW 10.4 mph 19.6 mph N/A   Partly Cloudy
2:53 PM 91.0 °F 96.6 °F 70.0 °F 50% 29.93 in 10.0 mi South 13.8 mph 20.7 mph N/A   Scattered Clouds
4:53 PM 91.9 °F 95.4 °F 66.9 °F 44% 29.89 in 10.0 mi SSW 8.1 mph - N/A   Partly Cloudy
5:53 PM 90.0 °F 93.6 °F 68.0 °F 48% 29.90 in 10.0 mi SSW 11.5 mph - N/A   Clear
6:53 PM 89.1 °F 92.9 °F 68.0 °F 50% 29.88 in 10.0 mi SSW 10.4 mph - N/A   Clear
7:53 PM 84.9 °F 89.4 °F 70.0 °F 61% 29.88 in 10.0 mi SSW 6.9 mph - N/A   Clear
8:53 PM 82.0 °F 86.3 °F 71.1 °F 69% 29.88 in 10.0 mi South 3.5 mph - N/A   Partly Cloudy
9:53 PM 82.9 °F 87.5 °F 71.1 °F 67% 29.90 in 10.0 mi SSW 5.8 mph - N/A   Scattered Clouds
10:53 PM 80.1 °F 83.8 °F 72.0 °F 76% 29.92 in 4.0 mi WSW 5.8 mph - 0.04 in Rain Rain
11:24 PM 75.9 °F - 73.9 °F 94% 29.93 in 7.0 mi Calm Calm - 0.00 in Thunderstorm Mostly Cloudy
11:53 PM 75.0 °F - 73.0 °F 94% 29.93 in 8.0 mi Calm Calm - 0.00 in   Scattered Clouds